Regional Weather Roundup
Issued by NWS

Home | Current Version | Previous Version | Text Only | Print | Product List | Glossary Off
Versions: 1 2 3 4 5 6 7 8 9 10 11 12 13 14 15 16 17 18 19 20 21 22 23 24 25 26 27 28 29 30 31 32 33 34 35 36 37 38 39 40 41 42 43 44 45 46 47 48 49 50

404
ASUS44 KLIX 301810
RWRLA
LOUISIANA WEATHER ROUNDUP
NATIONAL WEATHER SERVICE NEW ORLEANS LA
100 PM CDT WED JUL 30 2014

NOTE: "FAIR" INDICATES FEW OR NO CLOUDS BELOW 12,000 FEET WITH NO
      SIGNIFICANT WEATHER AND/OR OBSTRUCTIONS TO VISIBILITY.
      SKY/WX - SKY CONDITION AND SIGNIFICANT WEATHER.
      TMP - AIR TEMPERATURE.    DP   - DEWPOINT TEMPERATURE.
      RH  - RELATIVE HUMIDITY.  PRES - PRESSURE.
      HX  - HEAT INDEX.         WCI  - WIND CHILL INDEX.

*  THESE STATIONS ARE NOT NWS OR FAA STATIONS AND ARE NOT UNDER
   NWS QUALITY CONTROL.

LAZ040-048-061>063-065-066-069-301900-
SOUTHEAST LOUISIANA

CITY           SKY/WX    TMP DP  RH WIND       PRES   REMARKS
N.O. AUDUBON     N/A     90  64  42 MISG        N/A
6HR MIN TEMP:  76; 6HR MAX TEMP:  90;

N.O. INTL ARPT PTSUNNY   85  62  46 N7G17     30.06F
6HR MIN TEMP:  74; 6HR MAX TEMP:  86;

N.O. LAKEFRONT FAIR      83  61  47 N6        30.06F
6HR MIN TEMP:  75; 6HR MAX TEMP:  84;

N.O. DOWNTOWN* FAIR      84  57  39 NW7       30.06F
6HR MIN TEMP:  73; 6HR MAX TEMP:  84;

SLIDELL        FAIR      84  60  44 N8        30.05F
6HR MIN TEMP:  66; 6HR MAX TEMP:  84;

BATON ROUGE    FAIR      85  62  46 NW3       30.07F
6HR MIN TEMP:  68; 6HR MAX TEMP:  85;

BOOTHVILLE     FAIR      84  70  62 VRB7      30.06S
6HR MIN TEMP:  79; 6HR MAX TEMP:  84;

BELLE CHASSE   PTSUNNY   86  62  44 VRB3      30.05F
6HR MIN TEMP:  73; 6HR MAX TEMP:  86;

BOGALUSA*      FAIR      83  58  42 CALM      30.08F
6HR MIN TEMP:  65; 6HR MAX TEMP:  83;

GALLIANO*      NOT AVBL
NEW ROADS*     FAIR      82  62  51 CALM      30.07F
6HR MIN TEMP:  68; 6HR MAX TEMP:  82;

GONZALES*      FAIR      83  63  51 CALM      30.05F
6HR MIN TEMP:  69; 6HR MAX TEMP:  83;

HAMMOND*       FAIR      86  57  37 CALM      30.08F
HOUMA*         MOSUNNY   88  64  45 NW6       30.05F
PORT FOURCHON* MOCLDY    84  70  61 E6        30.06F

$$

LAZ041-044-053-054-301900-
SOUTHWEST LOUISIANA

CITY           SKY/WX    TMP DP  RH WIND       PRES   REMARKS
LAKE CHARLES   FAIR      87  67  51 E6        30.06F
6HR MIN TEMP:  72; 6HR MAX TEMP:  88;

LAFAYETTE      FAIR      86  64  47 N8        30.06F
6HR MIN TEMP:  71; 6HR MAX TEMP:  87;

PATTERSON      FAIR      88  70  55 NW5       30.10S
6HR MIN TEMP:  72; 6HR MAX TEMP:  88;

SALT POINT       N/A     88  71  57 W6        30.05F
6HR MIN TEMP:  74; 6HR MAX TEMP:  88;

NEW IBERIA     FAIR      87  66  49 NW6       30.07F
6HR MIN TEMP:  73; 6HR MAX TEMP:  87;

CHENAULT AIRPK NOT AVBL

$$

LAZ027-028-301900-
CENTRAL LOUISIANA

CITY           SKY/WX    TMP DP  RH WIND       PRES   REMARKS
FORT POLK      FAIR      85  61  44 SE3       30.08F
6HR MIN TEMP:  70; 6HR MAX TEMP:  86;

ALEXANDRIA INT FAIR      86  57  37 N6        30.07F
6HR MIN TEMP:  66; 6HR MAX TEMP:  87;

ALEXANDRIA     FAIR      87  62  43 VRB5      30.08F
6HR MIN TEMP:  65; 6HR MAX TEMP:  87;


$$

LAZ001-002-301900-
NORTHWEST LOUISIANA

CITY           SKY/WX    TMP DP  RH WIND       PRES   REMARKS
SHREVEPORT     PTSUNNY   86  60  41 SE7       30.08F
6HR MIN TEMP:  71; 6HR MAX TEMP:  87;

BARKSDALE AFB  FAIR      84  59  43 SE5       30.09F
6HR MIN TEMP:  67; 6HR MAX TEMP:  84;

DTN SHREVEPORT FAIR      84  59  42 SE7       30.09F
6HR MIN TEMP:  71; 6HR MAX TEMP:  84;


$$

LAZ014-016-301900-
NORTHEAST LOUISIANA

CITY           SKY/WX    TMP DP  RH WIND       PRES   REMARKS
MONROE         FAIR      84  61  45 NE5       30.10F
6HR MIN TEMP:  62; 6HR MAX TEMP:  84;

TALLULAH       FAIR      83  58  42 E6        30.09F
6HR MIN TEMP:  61; 6HR MAX TEMP:  83;


$$




USA.gov is the U.S. government's official web portal to all federal, state and local government web resources and services.